Flag for U.S.A. Weather past 2 weeks in Barrow, Alaska, U.S.A.

Now
5 °F

Overcast.


Feels Like: -14 °F
Forecast: -9 / 9 °F
Wind: 16 mph from Southeast

Location: Post Rogers Memorial Airport

Current Time: Feb 1, 2015 at 10:46:30 AM

Latest Report: Feb 1, 2015 at 9:53 AM


Visibility: 10 mi

Pressure: 30.32 "Hg

Humidity: 91%

Dew point: 3 °F

Location of BarrowLocation

Historic Weather in Barrow — Graph

°F

Barrow temperature yesterday

Maximum temperature yesterday: 10 °F (at 12:53 AM)
Minimum temperature yesterday: -12 °F (at 8:53 PM)
Average temperature yesterday: -1 °F

Past Weeks' High & Low Weather Summary

 TemperatureHumidityPressure
High18 °F (Jan 30, 12:53 PM)95% (Jan 19, 6:53 AM)30.59 "Hg (Jan 19, 6:53 AM)
Low-29 °F (Jan 28, 1:53 PM)68% (Jan 28, 2:53 PM)29.53 "Hg (Jan 17, 8:53 AM)
Average-11 °F80%30.05 "Hg
* Reported Jan 17 8:53 AM — Feb 1 8:53 AM, Barrow, Weather by CustomWeather, © 2014

Note: Actual official high and low records may vary slightly from our data, if they occured in-between our weather recording intervals... More about our weather records

Advertising

Barrow weather history for previous 24 hours

 ConditionsComfort  
Time TempWeatherWind HumidityBarometerVisibility
8:53 AM
Feb 1
5 °FOvercast.20 mph87%30.34 "Hg10 mi
7:53 AM5 °FOvercast.18 mph87%30.36 "Hg10 mi
6:53 AM5 °FLight snow. Ice fog.18 mph83%30.40 "Hg5 mi
5:53 AM3 °FLight snow. Ice fog.16 mph84%30.42 "Hg3 mi
4:53 AM1 °FLight snow. Overcast.15 mph79%30.45 "Hg4 mi
3:53 AM-2 °FLight snow. Mostly cloudy.12 mph78%30.48 "Hg9 mi
2:53 AM-4 °FMostly cloudy.8 mph79%30.51 "Hg10 mi
1:53 AM-4 °FOvercast.9 mph83%30.52 "Hg10 mi
12:53 AM-5 °FOvercast.8 mph87%30.53 "Hg10 mi
11:53 PM
Jan 31
-8 °FOvercast.6 mph86%30.53 "Hg10 mi
10:53 PM-7 °FPartly cloudy.3 mph83%30.54 "Hg10 mi
9:53 PM-9 °FClear.No wind82%30.55 "Hg10 mi
8:53 PM-12 °FClear.3 mph81%30.55 "Hg10 mi
7:53 PM-7 °FClear.No wind83%30.55 "Hg10 mi
6:53 PM-7 °FPassing clouds.7 mph83%30.55 "Hg10 mi
5:53 PM-5 °FPassing clouds.8 mphN/A30.55 "Hg10 mi
4:53 PM-5 °FPassing clouds.12 mphN/A30.53 "Hg10 mi
3:53 PM-3 °FClear.15 mph78%30.53 "Hg10 mi
2:53 PM-3 °FSunny.17 mph78%30.52 "Hg10 mi
1:53 PM-2 °FSunny.20 mph78%30.51 "Hg10 mi
12:53 PM-2 °FSunny.18 mph78%30.48 "Hg10 mi
11:53 AM-2 °FSunny.18 mph83%30.46 "Hg10 mi
10:53 AM0 °FClear.21 mph79%30.44 "Hg7 mi
Weather by CustomWeather, © 2014

See weather overviewHow to use our weather pages